FW6343 Weather Reports


time (UTC)temp
F
wind
direction
speed
knots
gust
knots
rain 1hr
in
rain 24hr
in
rain mn
in
humidity
%
barometer
mb
20260506050521 64 0 0.0 0.0 0.00 0.00 0.00 67 1014.5
20260506050409 64 0 0.0 0.0 0.00 0.00 0.00 67 1014.5
20260506045031 65 0 0.0 0.0 0.00 0.00 0.00 68 1014.7
20260506043457 64 0 0.0 0.0 0.00 0.00 0.00 69 1014.8
20260506043339 64 0 0.0 0.0 0.00 0.00 0.00 69 1014.8
20260506041856 64 0 0.0 0.0 0.00 0.00 0.00 69 1014.7
20260506040503 64 0 0.0 0.0 0.00 0.00 0.00 70 1014.7
20260506034943 64 0 0.0 0.0 0.00 0.00 0.00 69 1014.8
20260506033449 64 0 0.0 0.0 0.00 0.00 0.00 68 1014.7
20260506032012 64 0 0.0 0.0 0.00 0.00 0.00 67 1014.5
20260506031852 64 0 0.0 0.0 0.00 0.00 0.00 67 1014.5
20260506030513 65 0 0.0 0.0 0.00 0.00 0.00 68 1014.7
20260506030336 65 0 0.0 0.0 0.00 0.00 0.00 68 1014.7
20260506024925 65 0 0.0 0.0 0.00 0.00 0.00 67 1014.7
20260506023510 66 0 0.0 0.0 0.00 0.00 0.00 66 1014.7
20260506023353 66 0 0.0 0.0 0.00 0.00 0.00 66 1014.7
20260506021941 67 0 0.0 0.0 0.00 0.00 0.00 65 1014.5
20260506020359 67 0 0.0 0.0 0.00 0.00 0.00 64 1014.3
20260506014859 69 0 0.0 0.0 0.00 0.00 0.00 61 1014.0
20260506013404 70 0 0.0 0.0 0.00 0.00 0.00 59 1014.1
20260506012015 70 0 0.0 0.0 0.00 0.00 0.00 57 1014.4
20260506011832 70 0 0.0 0.0 0.00 0.00 0.00 57 1014.4
20260506010527 71 0 0.0 0.0 0.00 0.00 0.00 57 1014.5
20260506010414 71 0 0.0 0.0 0.00 0.00 0.00 57 1014.5
20260506005020 72 0 0.0 0.0 0.00 0.00 0.00 54 1014.3
20260506004912 72 0 0.0 0.0 0.00 0.00 0.00 54 1014.3
20260506003516 73 0 0.0 0.0 0.00 0.00 0.00 55 1014.0
20260506003400 73 0 0.0 0.0 0.00 0.00 0.00 55 1014.0
20260506001836 74 0 0.0 0.0 0.00 0.00 0.00 50 1014.1
20260506000433 74 0 0.0 0.0 0.00 0.00 0.00 46 1014.2
20260505235010 75 0 0.0 0.0 0.00 0.00 0.00 45 1014.3
20260505233500 75 0 0.0 0.0 0.00 0.00 0.00 46 1014.1
20260505233348 75 0 0.0 0.0 0.00 0.00 0.00 46 1014.1
20260505232004 76 0 0.0 0.9 0.00 0.00 0.00 44 1014.1
20260505230518 77 211 0.0 2.6 0.00 0.00 0.00 42 1014.1
20260505230355 77 211 0.0 2.6 0.00 0.00 0.00 42 1014.1
20260505224947 77 0 0.0 6.1 0.00 0.00 0.00 39 1014.1
20260505223505 79 186 3.5 9.6 0.00 0.00 0.00 37 1014.0
20260505223343 79 186 3.5 9.6 0.00 0.00 0.00 37 1014.0
20260505222044 79 195 0.9 9.6 0.00 0.00 0.00 38 1014.0
20260505221917 79 195 0.9 9.6 0.00 0.00 0.00 38 1014.0
20260505220422 79 251 1.7 10.4 0.00 0.00 0.00 37 1013.9
20260505214911 79 183 2.6 7.8 0.00 0.00 0.00 35 1014.0
20260505213529 80 234 3.5 12.2 0.00 0.00 0.00 36 1014.1
20260505213408 80 234 3.5 12.2 0.00 0.00 0.00 36 1014.1
20260505212011 79 157 4.3 9.6 0.00 0.00 0.00 36 1014.0
20260505211903 79 157 4.3 9.6 0.00 0.00 0.00 36 1014.0
20260505210426 79 221 4.3 8.7 0.00 0.00 0.00 35 1014.2
20260505205021 79 197 3.5 10.4 0.00 0.00 0.00 37 1014.4
20260505204857 79 197 3.5 10.4 0.00 0.00 0.00 37 1014.4
20260505203424 79 236 1.7 9.6 0.00 0.00 0.00 36 1014.5
20260505201931 79 213 6.1 12.2 0.00 0.00 0.00 37 1014.7
20260505201821 79 213 6.1 12.2 0.00 0.00 0.00 37 1014.7
20260505200511 78 207 5.2 10.4 0.00 0.00 0.00 37 1014.8
20260505200403 78 207 5.2 10.4 0.00 0.00 0.00 37 1014.8
20260505195004 78 244 3.5 8.7 0.00 0.00 0.00 37 1015.0
20260505194828 78 244 3.5 8.7 0.00 0.00 0.00 37 1015.0
20260505193441 79 218 1.7 7.8 0.00 0.00 0.00 36 1015.3
20260505191927 79 206 5.2 10.4 0.00 0.00 0.00 37 1015.6
20260505190444 78 351 2.6 7.8 0.00 0.00 0.00 38 1015.8
20260505190326 78 351 2.6 7.8 0.00 0.00 0.00 38 1015.8
20260505184938 78 225 3.5 8.7 0.00 0.00 0.00 39 1016.1
20260505183450 78 260 3.5 8.7 0.00 0.00 0.00 37 1016.2
20260505182009 77 194 2.6 9.6 0.00 0.00 0.00 40 1016.1
20260505181900 77 194 2.6 9.6 0.00 0.00 0.00 40 1016.1
20260505180539 76 192 2.6 8.7 0.00 0.00 0.00 39 1016.5
20260505180417 76 192 2.6 8.7 0.00 0.00 0.00 39 1016.5
20260505174952 76 276 2.6 10.4 0.00 0.00 0.00 41 1016.7
20260505174842 76 276 2.6 10.4 0.00 0.00 0.00 41 1016.7
20260505173504 76 185 0.9 11.3 0.00 0.00 0.00 39 1016.9
20260505172022 77 214 4.3 12.2 0.00 0.00 0.00 39 1017.1
20260505171835 77 214 4.3 12.2 0.00 0.00 0.00 39 1017.1
20260505170459 75 263 1.7 7.8 0.00 0.00 0.00 44 1017.2
20260505170354 75 263 1.7 7.8 0.00 0.00 0.00 44 1017.2
20260505165026 74 213 2.6 9.6 0.00 0.00 0.00 45 1017.0
20260505164841 74 213 2.6 9.6 0.00 0.00 0.00 45 1017.0
20260505163546 74 168 2.6 7.8 0.00 0.00 0.00 47 1017.1
20260505163348 74 168 2.6 7.8 0.00 0.00 0.00 47 1017.1
20260505162009 73 139 0.9 4.3 0.00 0.00 0.00 51 1017.3
20260505161849 73 139 0.9 4.3 0.00 0.00 0.00 51 1017.3
20260505160512 71 205 1.7 5.2 0.00 0.00 0.00 51 1017.4
20260505160343 71 205 1.7 5.2 0.00 0.00 0.00 51 1017.4
20260505152014 67 0 0.0 2.6 0.00 0.00 0.00 57 1017.9
20260505151908 67 0 0.0 2.6 0.00 0.00 0.00 57 1017.9
20260505150357 67 0 0.0 4.3 0.00 0.00 0.00 56 1017.8
20260505140512 62 0 0.0 4.3 0.00 0.00 0.00 63 1017.6
20260505140324 62 0 0.0 4.3 0.00 0.00 0.00 63 1017.6
20260505124920 56 0 0.0 0.0 0.00 0.00 0.00 74 1017.3
20260505123414 55 0 0.0 0.0 0.00 0.00 0.00 77 1017.4
20260505121934 53 0 0.0 0.0 0.00 0.00 0.00 79 1017.2
20260505120455 52 0 0.0 0.0 0.00 0.00 0.00 84 1016.7
20260505114905 49 0 0.0 0.0 0.00 0.00 0.00 87 1016.7
20260505113354 48 0 0.0 0.0 0.00 0.00 0.00 87 1016.5
20260505111917 47 0 0.0 0.0 0.00 0.00 0.00 87 1016.4
20260505110409 48 0 0.0 0.0 0.00 0.00 0.00 86 1016.6
20260505101917 47 0 0.0 0.0 0.00 0.00 0.00 85 1016.3
20260505100429 47 0 0.0 0.0 0.00 0.00 0.00 85 1016.3
20260505095011 47 0 0.0 0.0 0.00 0.00 0.00 84 1016.1
20260505094908 47 0 0.0 0.0 0.00 0.00 0.00 84 1016.1
20260505093411 47 0 0.0 0.0 0.00 0.00 0.00 84 1016.0
20260505092003 47 0 0.0 0.0 0.00 0.00 0.00 83 1016.1
20260505091839 47 0 0.0 0.0 0.00 0.00 0.00 83 1016.1
20260505090357 48 0 0.0 0.0 0.00 0.00 0.00 82 1016.2
20260505084918 48 0 0.0 0.0 0.00 0.00 0.00 82 1016.2
20260505083507 49 0 0.0 0.0 0.00 0.00 0.00 81 1015.8
20260505083342 49 0 0.0 0.0 0.00 0.00 0.00 81 1015.8
20260505082002 49 0 0.0 0.0 0.00 0.00 0.00 80 1015.8
20260505080445 50 0 0.0 0.0 0.00 0.00 0.00 80 1015.6
20260505074911 50 0 0.0 0.0 0.00 0.00 0.00 80 1015.6
20260505073530 51 0 0.0 0.0 0.00 0.00 0.00 80 1015.6
20260505073340 51 0 0.0 0.0 0.00 0.00 0.00 80 1015.6
20260505071929 51 0 0.0 0.0 0.00 0.00 0.00 80 1015.7
20260505070432 52 0 0.0 0.0 0.00 0.00 0.00 80 1015.7
20260505064951 52 0 0.0 0.0 0.00 0.00 0.00 79 1015.9
20260505064826 52 0 0.0 0.0 0.00 0.00 0.00 79 1015.9
20260505063534 52 0 0.0 0.0 0.00 0.00 0.00 79 1016.0
20260505063351 52 0 0.0 0.0 0.00 0.00 0.00 79 1016.0
20260505062027 52 0 0.0 0.0 0.00 0.00 0.00 77 1016.0
20260505061837 52 0 0.0 0.0 0.00 0.00 0.00 77 1016.0
20260505060526 53 0 0.0 0.0 0.00 0.00 0.00 76 1015.9
20260505060417 53 0 0.0 0.0 0.00 0.00 0.00 76 1015.9